• In Latvia
  • List of Countries
  • For 7 days
  • Water Temperature
  • Satellite Maps
  • Weather Map
  • Weather Widgets
  • user-avatar
    Login

    Hourly Weather Quito

    Today, 27 May, Saturday

    Time Temperature Precipitation Wind Pressure Humidity
    00:00 +19°C° 0 mm 1 mps 624 mmHg 52%
    01:00 +19°C° 0 mm 1 mps 624 mmHg 54%
    02:00 +19°C° 0 mm 1 mps 623 mmHg 55%
    03:00 +18°C° 0 mm 1 mps 623 mmHg 56%
    04:00 +18°C° 0 mm 1 mps 623 mmHg 57%
    05:00 +18°C° 0 mm 1 mps 623 mmHg 60%
    06:00 +16°C° 0 mm 1 mps 624 mmHg 63%
    07:00 +17°C° 0 mm 2 mps 624 mmHg 64%
    08:00 +19°C° 0 mm 2 mps 625 mmHg 56%
    09:00 +23°C° 0 mm 2 mps 626 mmHg 48%
    10:00 +25°C° 0 mm 2 mps 627 mmHg 40%
    11:00 +26°C° 0 mm 2 mps 627 mmHg 37%
    12:00 +27°C° 0 mm 2 mps 627 mmHg 34%
    13:00 +29°C° 0 mm 2 mps 627 mmHg 32%
    14:00 +27°C° 0.1 mm 2 mps 626 mmHg 36%
    15:00 +26°C° 0.1 mm 2 mps 625 mmHg 41%
    16:00 +25°C° 0.1 mm 2 mps 624 mmHg 45%
    17:00 +23°C° 0.2 mm 2 mps 624 mmHg 52%
    18:00 +20°C° 0.2 mm 2 mps 624 mmHg 59%
    19:00 +20°C° 0.2 mm 1 mps 624 mmHg 65%
    20:00 +19°C° 0 mm 1 mps 624 mmHg 65%
    21:00 +19°C° 0 mm 1 mps 624 mmHg 65%
    22:00 +19°C° 0 mm 1 mps 625 mmHg 65%
    23:00 +19°C° 0 mm 1 mps 624 mmHg 68%

    Tomorrow, 28 May, Sunday

    Time Temperature Precipitation Wind Pressure Humidity
    00:00 +18°C° 0 mm 1 mps 624 mmHg 70%
    01:00 +16°C° 0 mm 2 mps 624 mmHg 73%
    02:00 +16°C° 0 mm 1 mps 623 mmHg 75%
    03:00 +16°C° 0 mm 1 mps 623 mmHg 76%
    04:00 +15°C° 0 mm 1 mps 623 mmHg 78%
    05:00 +16°C° 0 mm 1 mps 623 mmHg 76%
    06:00 +16°C° 0 mm 1 mps 624 mmHg 74%
    07:00 +16°C° 0 mm 1 mps 624 mmHg 73%
    08:00 +20°C° 0 mm 1 mps 625 mmHg 64%
    09:00 +21°C° 0 mm 2 mps 626 mmHg 55%
    10:00 +24°C° 0 mm 2 mps 627 mmHg 46%
    11:00 +26°C° 0 mm 2 mps 627 mmHg 40%
    12:00 +27°C° 0 mm 2 mps 627 mmHg 35%
    13:00 +29°C° 0 mm 2 mps 627 mmHg 29%
    14:00 +28°C° 0 mm 2 mps 626 mmHg 33%
    15:00 +27°C° 0 mm 1 mps 625 mmHg 37%
    16:00 +26°C° 0 mm 1 mps 625 mmHg 40%
    17:00 +24°C° 0 mm 1 mps 624 mmHg 45%
    18:00 +21°C° 0 mm 1 mps 624 mmHg 51%
    19:00 +19°C° 0 mm 1 mps 623 mmHg 56%
    20:00 +19°C° 0.1 mm 1 mps 624 mmHg 57%
    21:00 +19°C° 0.1 mm 1 mps 624 mmHg 59%
    22:00 +20°C° 0.1 mm 1 mps 625 mmHg 60%
    23:00 +19°C° 0.2 mm 1 mps 624 mmHg 61%

    Day after tomorrow, 29 May, Monday

    Time Temperature Precipitation Wind Pressure Humidity
    00:00 +19°C° 0.2 mm 1 mps 624 mmHg 62%
    01:00 +19°C° 0.2 mm 1 mps 624 mmHg 64%
    02:00 +18°C° 0 mm 1 mps 624 mmHg 67%
    03:00 +18°C° 0 mm 1 mps 624 mmHg 70%
    04:00 +16°C° 0 mm 1 mps 623 mmHg 73%
    05:00 +16°C° 0 mm 1 mps 624 mmHg 73%
    06:00 +18°C° 0 mm 1 mps 624 mmHg 73%
    07:00 +18°C° 0 mm 1 mps 625 mmHg 73%
    08:00 +19°C° 0 mm 2 mps 626 mmHg 64%
    09:00 +20°C° 0 mm 2 mps 626 mmHg 56%
    10:00 +22°C° 0 mm 3 mps 627 mmHg 47%
    11:00 +24°C° 0 mm 3 mps 627 mmHg 41%
    12:00 +26°C° 0 mm 3 mps 627 mmHg 36%
    13:00 +27°C° 0 mm 3 mps 627 mmHg 30%
    14:00 +27°C° 0 mm 3 mps 626 mmHg 31%
    15:00 +26°C° 0 mm 3 mps 626 mmHg 32%
    16:00 +26°C° 0 mm 3 mps 626 mmHg 33%
    17:00 +24°C° 0 mm 2 mps 625 mmHg 38%
    18:00 +21°C° 0 mm 2 mps 625 mmHg 42%
    19:00 +19°C° 0 mm 2 mps 625 mmHg 47%
    20:00 +20°C° 0 mm 1 mps 625 mmHg 47%
    21:00 +20°C° 0 mm 1 mps 625 mmHg 47%
    22:00 +19°C° 0 mm 1 mps 626 mmHg 47%
    23:00 +19°C° 0 mm 1 mps 625 mmHg 47%

    30 May, Tuesday

    Time Temperature Precipitation Wind Pressure Humidity
    00:00 +19°C° 0 mm 1 mps 625 mmHg 47%
    01:00 +19°C° 0 mm 1 mps 625 mmHg 46%
    02:00 +18°C° 0 mm 1 mps 625 mmHg 47%
    03:00 +18°C° 0 mm 1 mps 625 mmHg 48%
    04:00 +16°C° 0 mm 1 mps 624 mmHg 49%
    05:00 +16°C° 0 mm 1 mps 625 mmHg 50%
    06:00 +16°C° 0 mm 2 mps 625 mmHg 50%
    07:00 +16°C° 0 mm 2 mps 626 mmHg 50%
    08:00 +18°C° 0 mm 2 mps 626 mmHg 46%
    09:00 +20°C° 0 mm 3 mps 627 mmHg 41%
    10:00 +22°C° 0 mm 4 mps 628 mmHg 36%
    11:00 +24°C° 0 mm 3 mps 627 mmHg 34%
    12:00 +26°C° 0 mm 3 mps 627 mmHg 32%
    13:00 +27°C° 0 mm 3 mps 627 mmHg 31%
    14:00 +26°C° 0 mm 3 mps 626 mmHg 32%
    15:00 +26°C° 0 mm 2 mps 626 mmHg 33%
    16:00 +26°C° 0 mm 2 mps 626 mmHg 34%
    17:00 +24°C° 0 mm 2 mps 625 mmHg 39%
    18:00 +21°C° 0 mm 2 mps 625 mmHg 43%
    19:00 +19°C° 0 mm 2 mps 625 mmHg 48%
    20:00 +19°C° 0 mm 2 mps 625 mmHg 49%
    21:00 +18°C° 0 mm 2 mps 625 mmHg 49%
    22:00 +19°C° 0 mm 1 mps 626 mmHg 50%
    23:00 +18°C° 0 mm 1 mps 625 mmHg 54%

    31 May, Wednesday

    Time Temperature Precipitation Wind Pressure Humidity
    00:00 +16°C° 0 mm 1 mps 625 mmHg 58%
    01:00 +15°C° 0 mm 1 mps 624 mmHg 62%
    02:00 +14°C° 0 mm 1 mps 624 mmHg 65%
    03:00 +13°C° 0 mm 1 mps 623 mmHg 69%
    04:00 +13°C° 0 mm 2 mps 623 mmHg 72%
    05:00 +13°C° 0 mm 2 mps 624 mmHg 71%
    06:00 +14°C° 0 mm 1 mps 624 mmHg 71%
    07:00 +14°C° 0 mm 1 mps 625 mmHg 70%
    08:00 +17°C° 0 mm 2 mps 626 mmHg 59%
    09:00 +20°C° 0 mm 3 mps 627 mmHg 48%
    10:00 +22°C° 0 mm 3 mps 628 mmHg 38%
    11:00 +25°C° 0 mm 3 mps 627 mmHg 34%
    12:00 +26°C° 0 mm 3 mps 627 mmHg 31%
    13:00 +27°C° 0 mm 2 mps 627 mmHg 27%
    14:00 +27°C° 0 mm 2 mps 626 mmHg 27%
    15:00 +26°C° 0 mm 2 mps 626 mmHg 28%
    16:00 +26°C° 0 mm 2 mps 626 mmHg 28%
    17:00 +23°C° 0 mm 2 mps 625 mmHg 35%
    18:00 +19°C° 0 mm 2 mps 625 mmHg 42%
    19:00 +16°C° 0 mm 2 mps 624 mmHg 49%
    20:00 +15°C° 0 mm 2 mps 624 mmHg 52%
    21:00 +14°C° 0 mm 2 mps 624 mmHg 55%
    22:00 +13°C° 0 mm 2 mps 624 mmHg 58%
    23:00 +13°C° 0 mm 2 mps 624 mmHg 61%

    1 June, Thursday

    Time Temperature Precipitation Wind Pressure Humidity
    00:00 +12°C° 0 mm 1 mps 623 mmHg 64%
    01:00 +11°C° 0 mm 1 mps 623 mmHg 66%
    02:00 +11°C° 0 mm 1 mps 623 mmHg 68%
    03:00 +10°C° 0 mm 1 mps 623 mmHg 70%
    04:00 +10°C° 0 mm 1 mps 623 mmHg 72%
    05:00 +11°C° 0 mm 1 mps 623 mmHg 70%
    06:00 +12°C° 0 mm 1 mps 624 mmHg 68%
    07:00 +12°C° 0 mm 1 mps 625 mmHg 66%
    08:00 +15°C° 0 mm 2 mps 626 mmHg 55%
    09:00 +18°C° 0 mm 3 mps 627 mmHg 45%
    10:00 +21°C° 0 mm 4 mps 628 mmHg 34%
    11:00 +22°C° 0 mm 3 mps 627 mmHg 31%
    12:00 +24°C° 0 mm 3 mps 627 mmHg 28%
    13:00 +25°C° 0 mm 3 mps 626 mmHg 25%
    14:00 +25°C° 0 mm 3 mps 626 mmHg 25%
    15:00 +25°C° 0 mm 3 mps 625 mmHg 25%
    16:00 +24°C° 0 mm 2 mps 625 mmHg 25%
    17:00 +20°C° 0 mm 2 mps 624 mmHg 33%
    18:00 +17°C° 0 mm 2 mps 624 mmHg 40%
    19:00 +14°C° 0 mm 2 mps 623 mmHg 47%
    20:00 +13°C° 0 mm 2 mps 623 mmHg 51%
    21:00 +12°C° 0 mm 1 mps 623 mmHg 54%
    22:00 +11°C° 0 mm 1 mps 623 mmHg 58%
    23:00 +10°C° 0 mm 1 mps 623 mmHg 61%
    Show more